Theta_e
295 295 295 295 295 295 295 295 295 295 295 295 295 295 295 295 295 295 294 294 293 293 293 292 292 292 291 291 291 290 290 289 289 288 287 287 286 286 286 286 286 286 286 286 286 286 286 286 286 286 286 286 286 286 285 285 285 284 285 285 284 284 284 283 284 285 284 283 283 283 283 283 284 283 282 282 281 281 281 281 281 281 282 282 282
294 295 295 295 294 294 294 294 294 294 294 295 295 295 295 295 295 294 294 293 293 293 293 292 292 292 291 291 291 290 290 289 289 288 287 287 286 286 286 285 285 285 285 285 285 285 286 285 286 286 285 285 285 285 285 285 284 284 284 284 284 283 283 282 283 283 283 282 281 281 282 282 282 283 282 281 281 280 280 281 281 281 281 281 282
293 294 295 295 295 294 294 294 294 294 294 294 294 294 294 294 294 294 294 293 293 293 293 292 292 292 291 291 290 290 290 289 288 288 287 286 286 286 285 285 285 285 285 285 285 285 285 285 285 285 285 284 284 284 284 284 284 284 284 283 283 283 282 282 282 282 282 281 280 280 280 280 281 282 281 280 280 280 280 281 281 281 282 281 281
293 293 293 294 294 294 294 294 293 293 294 294 294 294 294 294 294 293 293 293 293 293 292 292 292 291 291 291 290 290 289 289 288 287 287 286 286 286 285 285 285 285 285 285 285 285 285 285 284 284 284 284 284 284 284 284 284 283 283 283 282 282 282 281 281 281 281 280 280 279 279 279 279 280 279 278 279 279 280 280 281 281 281 281 280
292 293 293 293 293 293 293 293 293 293 293 293 294 294 294 294 293 293 293 293 293 292 292 291 291 291 291 290 290 289 289 289 288 288 287 287 286 286 285 285 284 284 284 284 285 285 285 285 284 284 284 283 283 283 283 283 283 282 282 282 282 281 281 280 280 280 279 279 279 278 278 277 277 278 278 278 278 278 278 279 279 279 280 279 279
291 292 292 292 292 291 292 292 292 292 293 293 293 293 293 293 293 293 293 293 292 292 291 291 291 291 291 290 290 289 289 289 288 288 287 286 286 286 285 285 284 284 284 284 284 284 284 284 284 284 284 284 283 283 283 283 282 282 281 281 281 280 280 279 279 279 278 278 278 278 277 276 276 277 278 278 278 278 278 278 279 279 279 279 278
290 290 291 291 291 291 291 291 291 291 292 292 292 292 292 292 292 293 293 292 292 292 291 291 290 290 290 290 290 289 289 289 288 288 287 286 286 286 285 285 284 284 284 284 284 283 283 284 283 283 284 284 284 284 283 282 282 281 281 281 280 279 279 278 278 278 277 277 277 277 276 276 276 277 278 278 278 278 278 279 279 279 279 278 278
289 289 289 290 290 290 290 290 290 290 291 291 291 291 292 292 292 292 292 292 292 292 291 291 290 290 290 289 289 289 289 288 288 287 287 286 286 286 285 285 284 284 284 284 283 283 283 283 283 283 283 284 285 285 284 283 282 281 281 280 280 279 278 278 277 277 276 276 276 276 276 277 277 278 278 278 278 279 279 279 279 279 279 278 278
289 288 288 289 289 289 289 290 290 290 291 290 290 290 290 291 291 291 291 291 292 291 291 291 290 290 289 289 289 288 288 288 288 287 287 286 286 286 285 285 285 284 283 283 283 283 282 282 282 282 283 283 284 284 284 284 284 283 281 280 279 279 278 278 277 276 276 276 276 276 277 278 278 278 278 279 279 279 279 279 279 279 278 278 278
288 288 288 288 288 288 288 289 290 290 290 290 290 290 290 290 290 290 290 291 291 291 291 290 290 289 289 288 288 288 288 288 288 287 287 287 286 286 285 285 285 284 283 283 282 282 282 282 282 282 282 282 282 282 282 283 283 284 283 282 281 280 278 277 277 276 276 276 276 277 278 278 279 279 279 279 279 279 279 278 278 278 278 278 279
288 287 287 287 287 287 287 287 289 290 290 290 290 290 290 290 289 289 290 290 290 290 290 290 289 289 289 288 288 288 287 288 287 287 287 287 287 286 285 285 284 284 283 283 282 282 282 282 281 281 281 281 281 281 281 281 281 282 283 283 283 282 281 279 277 276 276 276 276 277 278 279 279 279 279 279 279 278 278 278 278 278 278 279 279
288 287 287 287 286 286 286 286 287 288 289 290 290 290 289 289 289 289 289 289 289 289 289 289 289 289 288 288 288 287 287 287 287 287 287 287 287 286 285 285 284 284 283 283 282 282 282 281 281 281 281 281 281 280 280 280 280 280 281 281 282 282 282 282 280 278 277 276 277 278 278 278 279 279 279 279 278 278 278 278 278 278 279 279 279
287 287 286 286 286 286 285 285 286 286 287 288 289 290 290 289 289 288 288 288 288 288 288 288 288 288 288 287 287 287 287 287 287 287 286 286 286 286 285 285 284 284 283 283 282 282 281 281 281 280 281 281 280 280 280 280 279 280 280 280 280 280 280 281 280 280 279 278 277 278 278 279 279 279 279 278 278 278 278 278 278 279 279 279 279
287 286 286 286 286 286 285 285 285 285 285 286 287 289 289 289 289 288 288 287 287 287 287 287 288 288 287 287 287 287 287 287 286 286 286 286 286 286 285 285 284 284 283 283 282 282 281 281 280 280 280 280 280 280 280 279 279 279 279 279 279 279 279 279 278 278 278 278 278 278 278 279 279 279 278 278 277 278 278 278 279 279 279 279 278
286 286 285 285 286 285 285 285 284 284 285 285 285 286 288 289 289 289 287 287 287 286 286 286 287 287 287 286 286 286 286 286 286 286 286 286 286 286 285 285 284 283 283 282 282 281 281 281 280 280 279 279 280 280 280 280 279 279 279 278 278 278 278 278 278 277 278 278 278 279 279 279 279 278 278 277 278 278 279 279 279 279 278 277 276
285 285 285 285 285 285 284 284 284 284 284 284 285 285 286 287 288 289 288 287 287 286 286 286 286 286 286 286 286 285 286 285 285 285 285 285 286 286 286 284 283 282 282 282 281 281 281 280 280 280 279 279 279 279 279 279 279 279 279 278 278 278 278 278 278 279 279 279 279 280 279 279 278 278 277 278 279 279 279 278 278 277 276 275 274
285 285 284 284 285 284 284 284 284 284 284 284 284 284 285 286 287 288 288 288 287 286 285 285 285 285 285 285 285 285 285 285 285 284 285 285 286 286 286 285 283 282 282 281 281 280 280 280 280 279 279 279 279 279 279 279 279 279 279 278 278 278 278 278 279 279 280 280 280 280 279 279 278 278 278 279 280 280 279 278 277 276 274 273 273
284 284 284 284 284 284 283 283 283 283 283 283 283 284 284 285 285 286 287 287 287 287 286 285 284 284 284 284 284 284 284 284 284 284 284 285 286 286 286 285 283 282 281 280 280 280 279 279 279 279 279 278 278 279 279 279 278 279 279 279 278 278 278 278 278 279 279 279 279 279 278 278 279 279 279 280 279 278 277 276 276 274 273 272 272
284 283 283 283 283 283 282 282 282 283 283 283 283 283 283 284 284 285 286 286 286 286 286 285 284 284 284 284 283 283 283 283 283 283 284 285 286 286 286 284 282 281 281 280 279 279 279 278 278 278 278 278 278 279 280 279 278 278 278 278 278 278 278 278 278 278 278 278 278 278 278 279 279 279 279 278 277 276 276 275 274 273 272 271 271
283 282 282 282 281 281 281 281 281 281 282 282 282 282 282 283 284 284 285 285 285 285 285 284 284 284 284 283 283 283 282 282 283 283 283 284 286 286 286 284 282 281 280 279 279 278 278 278 278 278 278 277 278 280 281 280 278 278 278 278 278 278 278 277 277 277 277 277 277 278 278 278 278 278 277 276 275 275 274 274 272 271 270 270 270
281 281 280 280 280 280 280 280 280 280 280 281 281 281 282 282 283 283 284 284 284 284 284 284 283 283 283 283 282 282 282 282 282 282 282 284 285 286 285 284 282 281 280 279 278 278 277 277 277 278 278 277 277 279 281 281 279 278 278 278 278 278 277 277 276 276 276 276 277 277 276 277 276 276 275 274 274 273 273 272 271 270 270 270 270
280 280 279 279 279 279 278 278 278 278 279 280 280 281 281 282 282 283 283 283 283 283 283 283 282 282 282 282 281 281 281 281 281 281 281 283 285 286 286 284 283 282 280 279 278 277 277 277 277 278 279 278 278 279 281 282 280 279 278 277 277 277 277 276 276 277 276 276 276 276 276 276 275 275 274 274 273 272 271 270 270 270 269 269 270
279 278 278 278 278 278 277 277 277 277 278 278 279 280 281 281 282 282 282 282 282 282 282 282 281 281 281 281 281 281 281 281 280 280 280 281 284 285 286 285 283 282 280 279 278 278 277 277 277 278 279 279 279 280 282 282 281 279 278 277 277 277 277 276 276 276 276 276 276 275 275 274 274 274 274 273 271 270 270 270 269 269 269 269 269
278 277 277 277 277 277 276 276 276 276 276 277 278 279 280 281 281 281 281 281 281 280 281 281 280 280 280 280 281 281 281 280 280 280 280 280 282 284 285 285 284 282 281 279 279 278 278 278 278 278 279 280 280 281 282 282 281 280 279 278 278 278 278 277 276 276 276 276 276 274 273 273 274 273 272 271 270 269 269 269 269 269 268 269 269
276 276 276 276 276 275 275 275 275 275 275 276 277 279 280 280 281 281 281 281 280 280 280 280 280 279 279 279 280 280 280 279 279 279 279 279 281 283 285 285 284 283 281 280 279 279 279 278 278 278 280 281 281 281 282 282 282 280 279 279 279 279 278 277 277 276 275 275 274 273 272 273 273 272 270 269 269 269 268 269 269 269 269 268 268
275 275 275 275 274 274 274 274 274 274 274 275 276 278 279 280 280 280 280 280 280 280 280 280 280 279 279 279 280 280 279 279 278 278 279 279 280 281 283 285 284 283 282 281 279 278 278 278 278 279 280 281 281 281 281 281 282 281 280 279 279 279 278 277 276 275 274 273 273 273 273 272 271 270 269 268 268 268 268 268 269 269 269 268 268
274 274 273 273 273 273 272 272 272 273 273 274 275 277 278 278 279 279 280 280 280 280 280 280 280 279 279 280 280 280 279 278 277 277 277 278 279 280 281 283 284 283 282 281 279 278 278 278 278 279 280 281 281 281 280 281 281 281 280 279 279 278 277 277 276 275 275 275 274 273 272 270 269 268 268 268 268 268 268 268 268 268 268 268 268
273 272 272 272 271 271 271 271 272 272 273 273 274 275 276 277 278 278 279 279 279 280 280 280 280 280 280 280 280 280 279 278 277 277 278 278 278 279 280 282 284 283 281 280 279 278 278 278 278 279 280 281 281 280 280 280 280 279 279 278 278 277 276 276 276 275 274 273 272 271 270 269 268 268 268 267 268 268 268 267 267 268 268 268 268
271 270 270 270 270 270 270 270 271 271 272 273 273 274 274 275 276 277 277 278 279 279 279 280 280 280 280 280 280 280 279 279 279 279 279 278 279 279 280 281 283 283 281 279 278 278 278 278 278 278 279 279 278 277 277 277 276 276 277 277 276 276 276 275 275 274 272 271 270 270 269 268 268 267 267 267 268 268 267 267 267 267 268 268 268
269 269 269 269 269 269 269 270 270 270 271 271 271 272 272 273 274 275 276 277 278 279 280 280 280 280 281 281 281 281 281 281 281 281 280 279 279 279 280 281 282 283 281 279 278 278 278 278 278 278 278 277 276 275 274 273 272 273 274 274 275 275 274 273 273 272 271 270 270 269 268 267 267 267 267 267 267 267 267 267 267 267 268 268 268
267 267 267 268 268 268 268 269 269 269 269 269 270 270 271 271 272 273 275 276 278 279 280 281 281 281 281 281 281 281 281 281 281 281 280 279 279 279 280 281 282 282 281 279 278 278 278 278 277 277 276 275 275 274 273 271 271 270 270 271 272 272 272 271 271 270 270 269 268 268 267 267 267 267 267 266 266 266 267 267 267 267 267 268 268
265 266 266 266 266 266 267 267 267 267 268 268 268 269 270 270 271 272 273 275 276 278 279 280 281 282 282 282 282 282 281 281 281 281 280 280 280 280 280 281 282 282 281 280 278 277 277 277 276 276 275 275 274 273 272 271 270 269 268 269 269 270 270 270 270 269 269 268 268 267 267 267 267 266 266 266 266 266 266 266 267 267 268 268 268
264 264 264 264 264 265 265 265 266 266 266 267 267 268 269 269 270 271 271 272 274 276 278 279 281 282 282 282 283 283 282 281 281 281 281 280 280 280 281 281 282 282 281 280 278 277 277 277 276 275 274 274 274 273 272 272 270 269 269 270 269 269 269 270 269 269 269 268 268 267 267 267 266 266 266 266 266 266 266 266 267 267 268 268 268
262 262 263 263 263 264 264 264 265 265 266 266 267 267 268 269 270 270 271 272 272 274 275 277 279 280 281 282 282 283 283 283 282 281 281 281 281 281 281 281 282 282 282 280 278 277 277 276 275 274 274 274 273 272 271 271 270 269 270 270 269 269 269 268 268 268 268 267 267 267 267 266 266 266 266 266 266 266 266 266 267 268 268 268 269
261 261 262 262 262 263 263 264 264 265 265 266 266 267 268 268 269 270 271 272 273 274 275 276 277 278 280 281 282 282 283 283 282 282 281 281 281 281 281 281 282 282 282 280 278 277 276 275 274 274 273 273 273 271 271 270 270 271 271 270 269 269 268 268 268 268 268 267 267 267 267 267 266 266 266 266 265 266 266 266 267 268 268 268 269
261 261 261 261 262 262 263 263 263 264 264 264 265 266 266 267 268 269 270 271 273 274 275 276 276 277 278 279 280 281 282 283 283 282 281 281 281 281 281 281 281 282 282 280 278 276 276 275 274 273 273 273 272 270 271 271 271 271 271 270 269 269 268 268 269 268 267 267 267 267 267 267 267 266 266 266 266 266 266 267 267 268 268 269 269
260 260 261 261 261 262 262 262 263 263 263 264 264 265 265 266 267 268 269 270 272 274 275 276 276 277 277 278 278 280 281 282 283 283 282 281 281 281 281 281 281 282 282 280 277 276 275 274 274 273 272 272 270 270 271 271 271 270 269 269 269 269 269 269 268 268 267 268 267 267 267 267 267 267 266 266 266 266 266 267 268 268 269 269 268
260 260 261 261 261 262 262 262 263 263 263 264 264 265 265 266 266 267 268 269 270 272 275 276 277 277 277 277 278 278 280 281 282 283 282 281 281 281 281 281 281 281 281 279 276 275 274 273 273 272 271 270 270 270 271 271 270 269 269 269 269 269 268 268 267 267 268 267 267 267 267 267 267 267 266 266 266 266 267 267 268 268 268 268 268
260 261 261 261 262 262 263 263 264 264 264 265 265 266 266 267 267 267 267 268 269 271 273 276 277 277 277 277 277 278 279 280 281 282 282 281 281 281 281 281 281 281 279 277 275 274 273 272 272 271 270 270 270 271 271 270 270 269 269 269 268 268 267 267 267 267 267 267 267 267 268 268 267 267 266 266 266 266 267 268 268 268 268 268 267
261 261 261 262 262 263 263 264 264 264 265 265 266 266 267 267 268 268 268 269 269 270 271 273 275 276 277 277 277 277 278 279 281 281 281 281 280 280 281 281 280 279 276 275 274 273 272 271 270 271 270 271 271 271 270 270 270 269 269 269 268 268 267 267 267 267 267 267 268 268 268 268 267 267 266 266 266 267 267 268 268 268 268 267 266
261 261 261 262 262 263 263 263 264 264 265 265 266 266 267 267 268 269 269 270 270 270 271 271 272 273 275 276 276 277 278 279 280 280 280 280 280 280 280 280 279 277 274 273 272 271 270 270 270 271 271 271 271 270 270 270 270 269 269 268 268 267 267 267 267 267 267 268 268 268 268 268 267 266 266 266 266 267 268 268 268 267 267 266 266
261 261 261 261 262 262 263 263 264 264 265 265 265 266 267 268 268 269 270 271 271 272 272 272 273 273 274 275 276 277 278 279 279 280 280 280 279 279 279 279 277 274 273 272 271 271 271 271 271 271 271 270 270 270 270 269 269 269 268 268 267 267 267 267 267 267 267 268 268 268 268 268 267 266 266 266 267 267 267 267 267 267 266 266 265
261 261 261 261 262 262 262 263 263 263 263 264 264 265 266 267 267 268 270 271 272 273 273 274 274 274 275 275 275 276 278 279 279 279 279 278 278 278 277 275 274 272 272 272 272 273 274 273 272 272 272 271 270 270 270 270 269 269 268 268 267 267 267 267 267 267 268 268 268 268 268 268 267 266 266 266 266 267 267 267 267 266 266 266 265
262 262 262 262 262 262 262 262 263 263 263 264 264 265 265 266 267 268 269 270 271 273 274 274 274 275 275 275 276 277 278 278 278 277 277 276 275 274 273 272 271 271 272 273 274 274 274 273 272 271 270 270 270 270 270 269 269 269 268 268 267 267 267 267 267 267 268 268 268 268 268 268 267 266 266 266 267 267 267 267 266 266 266 266 265
262 262 262 262 262 262 262 263 263 263 263 264 264 264 265 265 266 267 268 269 271 273 274 274 274 274 275 275 276 277 277 276 275 274 273 272 271 271 271 271 271 272 272 272 273 273 273 272 271 270 269 269 269 269 268 268 268 268 268 268 267 267 267 267 267 267 268 268 268 268 268 268 268 267 267 267 267 267 267 267 266 266 266 265 265
263 263 263 263 263 263 263 263 263 263 263 264 264 264 265 266 266 267 268 269 271 273 274 274 274 275 275 275 275 274 273 272 271 271 270 269 269 269 269 269 270 272 272 272 272 272 272 272 271 270 269 269 268 268 267 267 267 267 267 267 267 267 267 267 267 267 267 268 268 268 268 268 268 267 267 268 267 267 267 267 267 266 266 265 264
264 264 264 264 264 264 263 263 263 264 264 264 265 265 266 267 267 268 269 270 272 273 274 274 274 274 273 272 271 270 269 269 268 268 268 268 268 269 269 270 271 272 272 271 271 271 271 270 270 269 269 268 268 267 267 267 267 267 266 266 266 266 266 266 266 267 267 268 268 268 268 268 268 268 268 268 268 267 267 267 267 266 266 265 264
263 264 264 265 265 265 264 264 264 264 264 265 265 266 267 267 268 270 271 272 272 272 272 272 271 270 270 269 268 267 267 267 266 266 267 267 267 269 270 271 271 271 270 270 270 269 269 269 269 268 268 268 268 267 267 267 266 266 266 266 266 266 266 266 266 266 267 268 268 268 268 268 268 268 268 268 268 267 267 267 267 266 265 265 264
263 263 264 265 265 266 266 265 265 265 265 265 266 267 267 268 270 271 271 271 270 270 269 268 268 267 267 266 266 265 265 265 265 266 266 266 267 268 269 270 270 270 269 269 268 268 268 267 267 267 267 267 267 267 266 266 266 266 266 266 265 265 265 266 266 267 267 268 268 269 268 268 268 268 268 268 268 267 267 267 267 266 265 264 264
262 263 263 264 264 265 266 266 266 266 266 267 267 268 268 269 269 269 268 268 267 266 266 266 265 265 265 264 264 264 264 264 265 266 266 266 266 267 268 268 268 268 268 268 267 267 267 267 266 266 266 266 266 266 266 266 265 265 265 265 265 265 266 266 266 267 267 268 268 268 268 268 268 268 268 268 268 267 267 267 266 265 264 264 263
261 262 262 262 263 263 264 265 265 266 266 267 267 267 267 267 266 266 265 265 264 264 264 264 264 264 263 263 263 263 262 262 263 265 266 267 267 267 267 267 267 267 267 267 267 266 266 266 266 266 266 266 266 266 265 265 265 265 265 265 265 265 265 265 266 267 267 268 268 268 269 269 268 268 268 268 268 268 267 266 265 264 264 263 263
Wind_Speed
28 25 23 22 23 26 27 28 28 29 30 31 33 34 34 35 35 35 36 37 36 36 37 37 38 39 40 41 43 44 45 45 46 46 46 47 47 46 46 47 47 48 47 46 46 46 46 45 44 43 42 40 39 38 36 35 33 32 30 29 28 27 26 22 13 6 9 12 12 14 16 17 18 20 21 22 21 19 19 18 16 16 16 16 16
32 28 25 23 23 25 26 27 27 28 29 30 32 33 34 35 36 35 35 35 36 36 36 37 37 37 39 40 42 43 45 46 47 47 48 48 46 44 44 46 48 48 46 46 47 47 46 45 44 44 42 41 40 39 38 37 35 34 33 31 31 30 28 27 21 11 9 12 15 16 17 19 20 21 21 21 21 20 20 18 16 16 16 16 18
34 31 27 24 23 24 25 25 26 26 27 29 31 32 34 35 35 35 35 35 35 36 37 37 37 38 39 41 42 43 44 45 45 46 47 47 46 45 44 46 48 48 48 48 49 48 46 46 46 45 44 42 41 40 39 39 37 36 35 34 32 31 30 29 25 18 13 13 16 18 19 21 22 21 19 20 20 20 19 18 18 18 17 17 18
34 33 31 28 26 24 24 25 25 26 27 28 29 30 33 34 34 35 35 35 36 37 37 38 38 38 40 41 42 43 44 44 44 45 46 46 46 46 44 44 46 48 49 50 50 50 49 49 48 47 45 44 42 41 41 40 40 39 37 36 34 33 32 31 28 24 19 16 17 18 18 20 21 20 19 19 19 17 16 17 17 17 18 17 18
32 32 32 31 30 28 27 25 24 25 26 27 28 29 31 32 33 34 34 35 36 36 37 37 37 39 40 41 41 42 43 43 44 46 46 46 45 44 43 43 44 45 46 48 50 51 52 52 51 49 48 47 45 44 44 43 42 40 39 38 36 34 32 31 31 27 22 20 19 17 17 18 19 20 19 16 15 14 14 15 15 15 16 16 17
30 30 31 31 31 30 29 27 25 25 25 26 27 27 29 30 32 33 34 35 36 36 36 37 38 40 41 41 41 42 42 43 45 46 45 44 44 43 43 43 43 44 44 44 46 49 52 51 50 50 51 51 50 48 46 45 43 42 41 39 37 35 32 31 31 28 25 23 21 18 17 19 18 18 17 14 12 13 12 12 13 13 13 14 16
30 30 30 29 30 30 30 29 28 26 25 25 25 25 27 28 30 31 33 34 35 35 36 37 38 39 40 40 41 42 42 43 45 45 44 44 44 44 43 43 43 45 45 43 42 44 48 49 47 49 53 54 54 52 49 47 45 43 42 40 37 35 33 31 30 28 26 22 19 18 18 18 17 15 14 11 11 13 13 11 10 10 10 12 15
30 31 31 30 30 30 30 30 29 29 28 26 25 24 24 26 27 29 31 32 34 35 35 36 37 38 39 39 40 40 41 42 43 44 44 44 44 43 43 42 43 44 44 43 42 42 45 46 46 48 51 54 54 53 52 50 47 44 42 40 38 35 34 32 29 28 25 20 18 17 15 14 14 12 11 11 12 13 12 10 9 9 10 13 16
29 30 31 31 31 31 31 31 31 31 31 30 28 26 24 23 24 26 28 30 32 34 35 35 36 37 37 37 38 38 40 41 42 43 43 43 43 43 42 42 42 42 42 41 41 41 41 43 43 44 46 49 51 51 51 50 49 47 44 42 39 37 35 33 31 30 25 19 16 15 13 13 13 11 11 13 13 12 10 8 8 9 11 14 17
27 28 29 30 32 34 35 35 34 33 33 32 32 30 27 24 22 22 24 26 29 31 33 34 34 35 35 35 36 37 39 41 41 42 43 44 43 42 42 42 41 40 40 39 39 39 40 40 41 41 42 44 46 46 46 47 47 46 45 44 41 39 36 34 33 32 28 21 18 16 13 13 13 13 13 14 12 10 8 7 7 9 11 14 14
25 26 27 28 30 32 34 36 36 35 34 33 32 32 30 28 25 22 22 23 25 28 30 31 32 33 34 34 35 37 38 39 39 41 43 44 43 42 41 41 41 40 41 40 40 40 40 41 41 40 41 42 43 43 43 44 45 43 42 41 41 39 37 36 36 35 31 26 21 18 15 13 13 14 14 12 11 9 7 6 7 10 11 12 11
23 23 25 26 27 29 30 32 34 35 35 34 33 32 31 30 28 26 24 23 23 25 27 29 30 31 32 33 34 36 37 38 38 39 41 43 44 43 41 40 40 40 40 41 42 42 41 42 41 41 41 42 42 41 40 41 42 42 40 38 38 38 37 35 35 34 34 30 24 20 18 14 12 14 14 12 10 8 6 7 10 12 13 13 13
22 23 25 26 27 28 29 30 30 32 33 34 34 34 32 31 29 27 26 24 22 23 25 27 29 30 31 32 33 35 36 36 37 38 40 42 44 43 41 40 40 40 40 41 41 42 43 43 42 43 44 43 43 43 41 39 38 38 38 36 35 35 34 33 32 30 32 32 27 23 20 16 13 14 14 12 9 6 7 10 12 14 15 14 14
22 23 25 26 27 28 29 30 30 31 32 33 34 35 34 32 31 29 27 25 23 22 23 25 27 29 29 31 32 33 34 34 35 37 38 40 42 43 42 41 40 40 41 41 40 41 42 43 42 43 45 44 44 44 43 40 37 35 35 35 35 34 32 32 31 28 27 28 27 24 21 17 14 13 13 12 9 8 11 13 14 15 15 15 15
22 23 25 26 27 28 28 29 29 30 31 32 33 34 34 34 33 31 28 26 24 24 23 24 25 27 28 30 31 32 32 32 32 34 36 38 40 41 41 41 39 38 39 40 41 41 42 42 42 42 43 44 45 45 44 42 39 36 35 35 35 34 33 33 32 29 26 25 24 22 18 15 13 12 13 11 9 10 15 16 16 16 15 15 16
20 22 24 26 27 27 28 28 28 29 29 30 30 31 32 33 33 31 29 27 26 25 25 24 24 25 26 27 29 31 31 30 30 32 34 36 37 37 38 39 37 36 36 38 39 40 41 42 42 42 43 45 45 44 44 43 40 38 36 34 33 33 33 32 29 25 23 23 22 20 18 16 14 13 12 9 9 12 15 17 18 16 13 12 14
20 21 23 25 26 28 28 27 27 28 28 28 28 29 29 31 31 30 30 29 27 26 26 26 25 25 26 26 27 29 30 29 29 30 32 33 34 34 35 35 35 35 35 36 37 38 38 40 41 42 43 44 43 42 43 42 40 38 35 32 31 30 29 27 26 25 25 25 22 21 21 19 15 13 12 11 12 14 15 17 17 13 9 9 9
20 21 23 25 26 27 28 27 27 27 28 28 28 28 28 28 28 28 27 28 28 27 26 27 27 27 26 26 27 28 30 29 28 29 30 31 32 33 33 32 32 32 31 32 33 35 36 37 39 41 41 42 42 39 39 40 40 37 34 32 30 27 25 25 27 27 24 21 18 18 18 17 14 14 14 14 13 13 15 18 18 13 11 11 9
21 22 24 25 26 27 28 27 27 27 27 28 28 28 29 28 27 26 24 24 25 26 25 25 27 27 26 27 27 27 29 29 27 28 28 29 31 33 32 30 30 29 29 29 29 31 33 34 36 39 39 39 39 35 34 38 39 36 35 35 31 29 28 27 29 29 24 19 17 17 16 16 16 17 18 18 17 17 19 21 22 20 18 16 12
22 23 25 26 26 28 28 28 28 28 28 28 29 29 29 29 28 26 24 23 23 23 23 23 25 27 26 26 27 28 28 28 28 29 29 29 31 33 32 31 30 28 28 28 28 28 31 31 32 35 35 36 37 33 31 34 37 36 36 36 35 33 32 29 27 28 25 20 18 17 16 17 20 21 21 21 22 23 24 24 23 22 20 17 13
23 25 26 26 27 29 29 28 29 29 29 29 30 30 30 29 28 27 26 25 23 23 23 22 23 25 25 25 26 27 28 28 29 29 29 28 29 32 33 33 31 29 28 28 29 30 30 30 30 31 31 33 36 34 31 31 34 36 36 37 36 33 30 28 25 24 22 20 18 18 18 19 21 22 23 24 24 25 25 22 19 17 16 15 12
24 25 27 27 28 29 29 30 31 30 30 29 30 32 31 29 28 27 26 25 24 24 24 23 23 25 25 24 25 27 27 28 28 29 29 28 29 32 34 35 34 33 30 29 29 30 31 32 32 31 31 34 37 36 33 30 30 33 34 34 32 28 25 26 25 22 21 21 21 20 20 20 22 23 24 26 26 24 20 16 14 13 12 12 11
26 27 28 28 29 29 30 31 32 31 31 30 30 31 31 30 29 27 26 25 24 23 24 23 22 24 25 25 25 26 27 28 28 28 29 28 29 32 35 36 36 35 33 31 31 32 33 34 35 33 33 34 35 33 32 30 29 30 31 30 27 23 22 24 25 24 23 23 22 20 19 21 24 25 26 26 22 18 14 11 10 10 10 12 12
27 29 30 30 30 30 30 31 32 31 31 31 30 30 30 28 27 26 25 23 22 21 23 22 20 20 22 24 25 26 26 27 28 28 28 28 29 30 33 35 36 36 34 32 33 35 36 35 35 34 31 31 31 31 32 32 29 28 28 27 25 24 24 24 26 26 25 24 22 18 17 21 24 25 24 21 16 12 10 9 9 9 11 13 14
28 30 31 31 31 31 31 32 33 32 32 30 28 29 29 26 25 24 23 22 21 20 21 20 19 19 20 21 24 26 26 26 27 28 28 28 29 29 29 31 34 37 36 33 32 34 36 36 36 34 31 29 29 28 30 32 30 27 26 26 26 27 28 27 27 27 25 22 19 17 19 22 23 21 18 14 11 11 10 8 8 10 11 13 15
29 30 31 31 32 31 32 33 34 33 32 30 28 28 28 26 25 24 22 21 21 21 21 20 19 19 20 21 23 25 25 25 27 28 27 27 29 31 31 30 30 33 36 35 31 30 31 32 33 34 34 32 31 30 30 30 28 25 25 27 28 29 29 29 28 26 22 20 20 20 21 21 19 15 13 12 11 10 9 7 8 10 11 14 17
29 30 31 32 32 31 31 32 33 33 32 30 28 27 27 26 25 24 23 22 21 20 21 21 19 19 19 21 23 23 23 23 25 26 26 27 28 30 32 31 28 30 32 31 28 27 27 26 27 28 30 31 32 34 33 32 30 29 28 30 31 31 29 28 27 24 21 21 21 21 20 18 15 13 12 11 11 9 6 6 8 10 11 14 15
28 30 32 33 33 33 32 32 32 31 30 29 28 28 28 26 25 26 26 25 23 22 21 20 21 22 21 21 20 20 21 23 26 27 27 28 28 28 28 28 28 30 30 28 27 27 26 25 25 25 26 27 27 29 31 33 34 34 34 33 32 30 27 25 24 22 21 20 19 19 18 16 15 13 11 10 9 6 4 5 7 10 11 12 12
30 32 34 34 34 35 33 32 31 30 29 30 29 30 30 29 28 31 34 32 30 28 26 25 26 27 25 24 21 18 20 25 29 29 29 29 29 30 30 29 28 30 31 30 28 27 26 26 26 26 27 26 25 26 28 28 29 31 33 33 31 28 26 25 24 22 21 20 19 20 18 16 14 12 10 9 8 5 4 5 7 9 10 10 11
32 34 34 33 33 33 31 30 30 29 28 29 30 32 34 33 31 32 36 38 36 33 31 33 34 31 28 29 29 26 27 29 29 28 28 28 28 30 32 30 28 29 31 32 31 30 28 27 26 27 28 26 24 25 25 24 25 27 28 30 30 28 26 24 23 22 21 21 20 19 17 16 14 11 9 8 7 5 5 6 8 9 10 10 11
32 33 33 32 31 31 30 30 31 30 29 29 28 29 32 35 35 33 35 37 37 36 34 35 36 34 32 32 33 32 31 29 26 25 26 26 27 29 30 30 29 28 31 33 31 29 28 26 24 25 27 27 25 25 24 23 23 23 23 25 27 26 25 24 23 23 21 20 19 18 17 16 13 10 8 7 6 6 6 7 9 11 11 11 13
32 33 34 33 33 32 31 32 31 30 30 29 28 27 27 29 31 34 34 33 32 34 35 36 37 36 35 35 34 32 31 28 24 23 24 25 27 29 30 31 31 30 33 35 31 28 28 26 24 24 26 26 26 27 27 25 23 22 24 26 26 25 25 25 24 23 22 20 20 19 17 15 12 8 6 6 6 7 7 8 10 12 12 12 14
34 35 35 35 35 34 33 33 32 30 29 27 27 29 27 23 21 27 34 36 34 33 34 35 36 37 36 35 35 34 33 29 25 25 25 25 27 28 29 31 33 32 35 35 30 26 27 27 25 26 27 26 26 28 29 28 25 24 26 28 28 26 25 24 22 22 21 20 18 17 15 12 10 7 5 5 5 7 7 8 10 11 12 13 14
36 36 36 36 35 33 33 32 31 31 30 28 27 28 28 25 22 22 25 27 28 30 32 34 35 35 35 35 35 34 33 30 27 26 26 26 27 28 28 30 32 34 37 35 29 26 27 26 25 27 27 27 27 28 28 28 27 27 28 28 27 25 24 23 22 22 21 18 17 15 12 10 7 5 4 4 5 6 7 8 10 11 11 13 16
38 38 38 37 35 33 32 31 30 29 29 28 27 27 26 26 26 25 23 21 20 22 28 32 32 32 32 32 33 33 34 32 30 28 27 26 27 28 28 27 27 31 35 34 30 29 28 27 27 28 29 29 29 29 30 30 31 32 31 29 27 26 25 24 23 21 19 17 16 13 9 7 5 4 4 5 6 6 7 8 9 10 12 15 17
37 35 34 34 33 33 34 32 31 30 29 29 29 29 28 28 27 27 28 27 25 23 25 29 31 30 29 30 31 32 33 33 31 29 28 27 27 28 27 24 23 26 29 30 30 30 29 29 29 30 31 30 28 29 33 34 34 34 32 30 29 28 26 24 23 21 19 16 13 10 7 5 3 3 4 5 7 8 9 10 11 11 13 15 17
37 34 33 33 35 35 35 34 32 32 32 31 30 28 28 28 26 24 23 24 24 23 23 26 27 26 25 27 30 30 31 31 31 30 29 28 28 29 29 25 23 24 24 25 28 28 28 29 31 31 32 31 29 30 34 35 34 32 31 30 29 28 25 23 21 20 18 15 12 9 6 4 2 2 3 5 7 8 10 11 11 12 14 16 18
38 36 35 35 36 35 33 32 31 30 30 29 28 27 27 27 26 25 23 24 25 24 22 21 21 20 20 23 24 24 26 28 28 28 29 29 28 29 29 26 24 24 23 25 28 29 28 28 30 31 32 31 31 33 35 35 33 32 30 29 27 25 23 22 20 19 16 13 11 8 6 3 2 2 3 5 7 9 11 11 12 13 14 15 18
35 35 35 36 35 33 30 28 27 26 26 24 23 23 24 24 23 23 23 22 23 22 20 19 18 17 19 19 19 19 21 22 22 22 24 26 27 27 27 26 25 24 23 24 28 30 28 28 30 32 32 33 35 37 36 34 32 31 29 28 27 24 23 22 20 18 15 12 10 8 5 2 1 2 3 5 8 11 12 12 13 13 14 16 20
32 31 32 32 31 30 28 27 26 25 24 24 23 22 23 22 21 21 20 19 20 21 20 20 19 18 17 17 17 18 19 19 20 20 21 22 24 25 25 25 24 23 23 26 29 30 30 30 32 33 33 35 38 38 36 33 32 30 28 27 26 24 23 21 19 17 14 12 9 7 4 2 0 2 4 6 8 11 12 13 14 15 17 20 23
31 30 29 29 29 28 27 26 26 25 24 24 23 23 24 23 22 22 21 20 21 21 20 21 24 25 23 21 21 22 22 21 22 22 21 23 26 26 25 23 23 25 27 28 30 31 31 32 33 35 36 37 38 36 34 33 31 30 28 25 23 22 21 20 18 16 14 11 9 6 3 1 1 3 5 7 9 11 13 14 14 16 20 23 25
31 29 28 27 27 26 25 25 25 24 24 23 22 21 22 22 22 22 22 21 21 20 18 19 23 25 25 25 26 27 26 24 23 22 22 23 24 23 21 21 23 27 30 31 32 33 34 34 35 36 37 38 37 36 34 32 30 28 26 24 22 21 21 19 18 15 13 11 8 5 3 0 2 4 6 9 11 13 14 15 15 17 21 24 25
31 29 28 26 25 25 24 25 25 24 24 24 24 24 24 23 23 23 23 21 21 20 19 18 19 20 21 24 26 27 26 24 23 21 20 20 21 20 19 21 24 28 30 32 34 36 36 35 36 37 38 38 37 35 33 31 29 26 24 23 21 21 20 19 17 15 13 10 7 4 1 1 3 5 8 10 12 14 15 15 15 17 21 24 25
30 28 27 26 25 24 24 24 23 22 23 23 23 23 23 23 23 23 22 21 21 20 19 18 18 17 17 19 22 23 22 20 19 19 18 19 20 20 21 24 27 29 32 33 35 36 36 36 37 37 36 34 32 30 29 27 25 24 23 22 22 21 21 19 18 15 13 10 7 3 0 2 4 7 9 11 13 15 15 15 15 18 22 24 24
28 27 26 24 24 23 23 23 22 22 22 22 22 21 21 21 21 21 21 20 20 19 17 17 16 15 15 16 17 17 15 15 18 19 19 21 22 23 25 28 30 31 33 33 33 34 35 37 38 37 34 32 29 27 25 24 22 21 20 19 19 20 20 19 17 15 12 9 5 2 1 4 6 8 11 13 15 16 16 16 16 18 22 23 24
26 25 24 24 23 22 21 21 20 19 19 18 18 18 18 19 20 20 20 20 20 19 17 16 14 14 13 12 11 11 13 17 20 22 22 22 23 25 27 30 31 32 33 34 35 35 35 36 36 35 34 32 29 27 25 23 21 19 18 16 16 17 17 17 16 13 11 7 4 0 2 5 8 10 12 15 16 16 16 16 17 20 23 24 24
24 23 23 22 22 21 20 19 18 17 17 17 17 16 16 17 18 19 19 21 21 18 14 11 10 10 10 10 12 14 17 19 21 23 24 24 25 28 30 32 33 35 37 37 37 35 34 33 33 33 32 31 29 26 25 23 21 19 18 16 16 16 17 16 14 12 9 6 2 1 4 7 10 12 13 15 15 14 15 17 19 21 24 25 25
22 22 21 21 21 20 18 17 15 14 15 15 15 15 16 17 18 19 18 16 14 10 7 8 9 11 12 14 15 17 19 20 22 24 25 26 28 31 34 36 38 39 39 38 35 33 32 31 30 29 29 28 26 24 23 21 19 18 17 15 15 14 14 14 12 11 8 4 1 2 5 9 12 13 14 14 13 14 16 18 19 21 24 25 25
21 20 20 19 19 16 14 14 14 14 14 14 15 16 16 16 15 12 8 4 4 6 9 11 13 15 16 18 19 20 21 23 25 26 28 30 33 37 40 41 41 41 40 37 34 32 31 30 28 27 26 24 23 22 20 19 17 16 15 14 13 12 12 11 11 10 7 4 1 3 7 11 13 13 12 11 12 14 16 18 19 21 23 24 25
20 20 19 19 19 18 13 8 8 9 10 11 10 9 6 3 2 5 8 10 12 13 13 14 16 17 18 20 21 23 25 27 29 32 35 37 40 41 42 41 41 40 38 37 34 32 30 28 27 25 23 22 20 19 18 16 15 14 13 12 11 11 11 11 11 10 7 3 2 5 9 12 12 11 10 11 13 14 16 16 18 21 23 23 25
21 21 21 20 20 20 20 17 14 11 10 8 6 7 9 11 13 15 16 16 17 17 17 17 18 19 20 20 22 26 29 32 35 38 42 43 42 41 40 40 39 38 37 35 33 30 28 27 25 23 21 20 19 17 16 14 13 12 12 11 11 10 10 10 10 9 6 3 4 8 10 10 10 10 11 12 13 13 14 15 18 20 22 24 24
Wind_Direction
351 334 316 299 283 273 267 261 255 251 247 244 243 242 241 242 242 242 239 236 234 233 233 231 229 227 225 223 222 222 222 221 221 220 220 221 220 220 219 219 219 219 219 219 218 219 219 219 219 219 218 217 214 213 212 212 211 211 212 212 210 209 205 200 200 213 220 219 218 218 219 226 242 255 264 272 277 283 289 295 302 310 314 319 323
0 351 338 321 303 290 281 272 265 259 253 249 248 247 246 245 244 243 241 238 236 234 233 231 230 228 226 224 223 222 222 222 221 219 219 219 219 219 219 218 218 217 216 217 217 217 217 217 217 217 217 216 214 213 211 210 210 210 211 211 210 210 208 204 202 203 214 219 216 217 221 230 244 257 264 271 281 292 296 299 307 313 318 323 324
7 4 357 344 328 312 299 287 277 267 260 256 254 252 251 249 247 245 243 241 239 237 234 232 230 229 227 226 224 222 222 222 221 219 218 218 218 218 218 218 217 215 215 216 216 215 215 215 215 215 214 213 212 212 211 211 211 211 211 211 210 210 210 208 205 204 207 215 217 219 223 231 242 252 259 270 284 293 295 299 306 311 317 324 322
10 12 10 4 355 340 323 308 292 279 271 266 262 260 258 254 251 248 246 243 241 239 236 233 230 228 226 225 224 223 222 221 220 220 219 219 219 219 219 218 218 216 215 215 215 215 214 213 214 214 212 210 209 209 210 210 211 210 210 209 209 210 210 209 208 207 207 213 221 222 222 228 240 249 259 273 283 286 290 298 305 310 314 320 319
10 13 15 14 11 3 349 334 314 298 287 280 274 270 265 259 255 252 248 245 243 240 237 232 229 227 226 225 224 223 222 221 221 221 221 220 220 220 220 220 220 219 218 216 215 215 214 214 213 212 211 209 208 208 209 209 209 208 208 208 207 208 208 208 209 208 206 210 218 222 221 224 236 249 258 268 274 277 282 289 297 305 308 309 308
9 12 15 15 13 10 4 355 340 323 309 298 291 283 275 267 261 256 252 249 245 241 237 233 230 228 227 226 224 223 223 222 222 222 221 220 220 220 220 221 221 222 222 220 217 215 215 214 213 212 211 210 209 209 209 208 208 207 206 206 206 204 204 205 206 206 208 212 217 221 224 227 235 247 255 257 256 260 268 275 281 287 291 292 291
8 10 12 13 12 9 7 4 358 348 336 322 311 299 289 279 270 263 258 252 247 242 238 235 233 232 230 227 226 225 223 222 222 222 221 220 219 219 220 220 221 222 223 223 222 219 216 214 212 213 213 212 212 211 209 208 207 207 207 206 204 202 200 202 203 203 206 209 214 221 227 231 235 241 250 252 248 249 253 259 267 273 279 280 279
8 8 9 10 8 6 5 4 3 2 357 349 336 321 306 293 282 273 264 256 251 246 242 239 237 235 232 230 228 226 224 223 222 220 220 219 218 218 219 220 220 221 222 223 223 223 221 217 215 215 216 216 216 214 212 209 206 206 207 206 203 200 199 199 199 201 202 202 207 215 221 228 230 230 236 237 235 237 237 241 257 271 278 278 276
6 7 7 7 4 3 3 3 3 4 4 1 354 342 328 312 297 284 272 263 257 253 248 244 240 237 234 232 230 227 225 224 223 221 219 218 218 218 219 219 220 220 221 221 222 223 223 221 218 218 218 219 218 218 217 215 212 209 206 205 202 200 200 199 198 199 198 196 202 207 210 218 219 215 219 220 220 225 229 239 261 274 281 281 275
3 4 5 4 3 3 3 3 3 3 2 1 359 354 345 334 318 300 285 274 265 259 254 248 243 239 237 234 231 229 227 227 226 224 222 220 218 218 218 219 219 219 219 219 219 221 222 222 221 219 219 219 218 218 218 217 217 215 212 210 206 202 199 198 200 201 198 195 199 199 201 213 214 211 217 219 218 226 236 247 269 281 283 282 275
360 1 1 1 2 3 3 2 2 1 359 358 357 356 352 346 336 322 306 291 278 268 260 252 246 242 239 236 233 231 230 230 228 227 226 224 221 218 218 218 218 218 217 216 216 217 218 220 220 219 218 218 217 217 218 217 215 215 215 216 214 210 205 201 201 201 200 200 200 198 201 210 211 211 216 219 219 224 233 250 273 278 272 270 271
355 356 357 359 360 1 1 0 360 359 358 356 354 353 352 350 346 338 325 311 296 281 268 259 253 248 244 240 237 235 235 234 231 229 227 226 224 221 219 219 218 217 217 216 215 214 214 215 217 217 218 218 216 216 216 215 214 213 214 215 215 216 216 215 212 208 205 202 199 202 207 205 207 212 213 213 214 220 243 261 264 263 258 261 267
349 351 354 356 357 357 357 357 357 356 356 355 353 352 351 349 348 343 335 325 310 292 278 268 260 253 248 244 242 240 239 237 234 232 229 227 225 223 221 220 219 218 218 217 215 213 211 211 212 215 216 215 214 213 212 212 212 213 213 213 213 215 218 221 222 222 217 209 202 205 208 203 205 212 212 213 213 222 251 258 257 257 256 259 265
344 346 349 351 352 353 353 353 353 353 353 353 352 352 350 347 345 344 340 332 319 303 289 276 266 258 252 248 246 245 243 241 237 234 231 229 226 224 223 222 221 220 219 217 215 214 212 210 210 211 212 210 210 209 208 207 206 207 208 209 210 212 214 216 219 222 222 215 210 212 213 210 209 210 217 225 227 234 247 252 256 258 259 263 271
339 341 344 345 346 347 348 347 347 348 350 351 350 349 348 345 344 343 340 334 325 313 300 287 276 267 259 253 250 249 247 244 241 237 234 230 227 225 224 224 223 222 221 219 217 215 214 212 212 211 210 210 209 208 206 205 202 201 203 204 207 209 211 214 214 213 212 214 215 218 216 212 211 217 229 236 240 250 254 255 257 260 267 274 275
333 336 338 340 340 341 341 341 341 341 344 346 346 345 343 342 341 340 338 335 329 320 309 298 286 277 269 261 255 253 251 248 244 240 235 231 227 224 223 224 223 222 222 220 219 218 216 215 214 213 212 211 210 208 206 203 200 199 199 201 203 206 208 211 211 207 206 210 213 216 218 220 224 230 235 240 253 259 258 258 259 264 275 278 271
327 331 333 333 334 334 335 335 334 335 336 337 338 338 338 337 338 338 335 333 330 323 315 306 297 287 278 270 262 258 255 251 246 242 237 230 224 222 222 223 223 223 222 221 219 218 218 217 215 214 214 212 209 206 204 202 199 197 197 196 198 202 205 208 207 207 210 213 213 219 227 232 233 233 237 248 256 258 258 260 263 268 276 274 268
322 326 327 327 327 328 329 329 328 329 330 330 330 330 330 331 333 333 331 328 326 323 317 308 301 293 284 277 270 264 260 255 248 243 237 229 223 223 223 221 222 223 222 221 220 218 217 217 216 214 214 212 207 203 201 200 199 197 195 194 194 197 201 204 205 207 211 214 217 222 227 228 230 234 239 244 247 250 252 256 261 263 264 266 267
317 320 321 321 320 321 322 323 323 322 322 322 322 323 323 324 325 325 323 320 317 316 313 306 300 295 289 283 277 270 265 260 253 245 238 229 224 225 224 220 219 220 219 218 218 217 217 217 216 214 213 211 205 199 197 200 200 198 197 194 194 198 203 205 205 205 205 205 210 213 215 221 226 229 233 237 242 243 244 251 261 264 262 262 265
311 313 315 315 314 315 317 318 318 317 316 316 316 317 317 318 319 318 315 312 308 306 305 301 297 295 292 288 281 274 269 263 256 250 242 231 225 224 222 218 216 216 215 214 213 213 213 214 214 212 211 209 204 197 195 201 203 202 200 199 199 204 208 206 205 206 204 200 202 206 210 218 223 226 234 241 243 245 249 258 266 265 260 260 259
305 308 310 310 309 311 313 313 314 314 313 312 312 312 312 313 313 311 309 307 303 301 300 297 293 291 289 285 280 274 270 263 258 254 245 234 226 223 220 217 215 213 212 212 211 209 207 207 208 205 202 203 204 199 197 203 206 206 205 205 206 208 207 203 201 202 201 199 201 205 208 217 226 233 239 242 244 251 259 264 265 261 257 258 257
302 305 306 305 305 306 308 309 310 310 310 310 309 308 308 309 309 309 307 303 299 297 296 293 289 287 285 282 276 272 268 263 258 254 248 237 230 227 223 219 216 213 210 209 209 208 206 206 205 200 197 201 205 202 198 199 204 209 210 209 208 208 203 199 196 194 196 199 202 205 210 219 228 233 236 242 250 258 262 263 262 263 261 258 256
301 303 302 301 301 301 302 305 306 306 305 306 305 303 302 303 304 304 302 298 294 291 289 287 284 282 282 280 276 272 267 262 256 252 248 240 233 231 229 224 219 215 211 209 209 207 207 207 206 201 197 200 202 199 196 195 198 206 209 205 202 199 196 195 195 194 198 201 202 205 214 221 226 233 240 249 255 257 257 260 268 275 273 268 266
300 299 299 298 297 297 299 301 301 300 301 302 301 297 296 297 298 298 295 291 285 280 279 278 274 272 274 275 274 271 266 260 254 249 245 241 235 233 231 226 221 218 216 214 213 210 208 207 205 200 195 197 198 196 196 195 195 198 200 196 195 195 194 194 197 200 202 203 204 208 217 224 231 239 248 253 254 253 257 263 271 278 277 277 279
296 295 294 293 293 294 296 297 296 296 297 298 295 291 291 291 290 290 288 282 275 271 271 270 264 262 264 266 268 268 263 255 250 246 242 239 236 234 231 225 219 218 219 218 217 215 212 209 205 198 194 195 196 196 197 199 196 193 190 190 194 197 197 198 200 201 201 201 204 211 222 232 239 244 248 250 250 255 264 271 279 285 288 291 293
292 291 290 289 290 292 293 293 294 295 295 294 289 286 285 285 284 283 281 275 269 266 266 265 260 257 257 259 262 264 260 251 245 242 238 235 234 233 231 227 218 215 218 220 217 215 213 208 203 198 194 192 191 192 194 196 197 195 191 191 196 198 198 198 198 197 198 203 210 221 232 239 241 238 238 242 248 256 268 283 292 297 304 306 300
290 289 288 289 290 290 289 289 290 292 292 291 288 285 282 280 278 275 273 269 265 262 261 260 258 255 254 257 258 259 257 248 240 236 232 230 231 231 232 231 221 210 211 213 210 206 203 199 198 198 196 193 191 189 188 188 190 192 191 191 196 197 196 197 199 202 210 219 226 235 239 237 232 230 233 239 247 255 268 286 293 300 309 308 295
289 288 288 289 289 288 288 288 288 288 287 286 284 283 282 280 277 273 270 266 262 260 257 254 254 254 254 256 257 256 253 244 238 235 231 227 226 226 228 229 221 208 203 201 197 194 192 190 191 194 197 196 191 185 183 183 183 183 183 185 190 191 191 195 203 211 220 227 231 234 232 228 227 229 232 239 248 260 277 280 286 296 301 298 284
291 288 287 287 286 286 286 286 285 284 283 283 281 278 277 277 276 277 276 271 265 262 261 259 258 256 255 255 252 247 244 244 244 244 240 232 226 224 223 222 216 206 199 193 186 182 182 183 185 187 190 191 184 175 174 174 172 174 177 180 184 187 191 199 206 212 216 219 221 223 223 224 226 227 231 245 256 270 286 285 289 294 290 279 271
291 287 285 284 283 284 285 284 283 282 281 282 282 281 279 276 271 271 273 274 270 264 260 260 261 260 257 255 253 249 249 252 254 253 246 235 227 225 223 221 216 205 193 185 180 178 179 181 185 187 187 185 180 174 171 168 166 169 175 180 185 189 194 200 206 209 211 212 215 217 218 221 225 225 229 247 266 282 292 292 291 289 282 273 271
288 285 284 282 281 282 283 283 283 282 281 279 279 281 283 281 277 270 267 269 271 268 262 260 260 258 256 256 257 255 254 254 252 249 243 232 224 222 220 218 216 204 188 179 178 180 181 182 185 187 186 183 180 177 173 170 170 170 171 177 184 188 191 196 201 204 206 206 208 212 217 220 223 225 228 243 270 289 297 298 294 289 281 274 274
284 283 283 283 283 283 282 281 281 281 280 280 278 277 278 282 283 279 273 269 269 268 265 261 259 257 254 254 254 254 253 249 242 237 234 226 220 220 217 216 216 205 187 181 182 183 184 184 184 184 185 184 183 180 177 176 175 173 173 176 180 185 191 195 197 199 199 201 204 210 215 220 221 222 232 249 269 283 291 297 296 291 284 275 272
282 281 282 282 282 282 280 279 278 277 277 277 276 275 273 272 277 282 283 280 277 272 266 261 258 256 254 252 251 251 250 247 238 232 230 224 220 218 215 215 216 205 189 184 186 187 185 185 184 183 184 186 185 184 184 183 180 177 178 180 181 185 189 191 192 194 196 199 205 209 213 216 218 220 236 259 275 283 287 291 290 285 281 278 279
282 280 280 281 281 280 279 277 276 275 274 273 272 271 269 266 265 270 277 280 279 274 270 264 258 255 253 252 250 249 248 245 236 230 228 224 221 219 215 215 217 209 196 189 189 188 185 184 184 183 184 187 187 186 186 186 183 180 180 183 184 184 183 184 187 191 194 197 203 208 210 210 212 223 246 268 283 284 278 278 280 279 280 285 289
282 280 279 279 278 277 277 277 276 275 275 274 274 273 271 270 270 269 269 271 272 270 269 266 260 255 253 252 250 248 247 243 237 229 224 221 220 218 214 213 215 212 202 194 190 189 186 184 182 182 184 188 190 189 187 185 184 184 183 182 181 179 179 182 187 189 192 196 200 203 203 201 208 236 262 276 285 281 275 275 274 276 285 291 294
281 279 277 276 275 274 274 274 274 274 274 274 273 272 271 270 267 263 262 264 264 261 261 261 261 260 257 253 251 248 245 242 237 228 221 218 217 215 212 210 210 210 205 196 190 188 187 185 182 181 184 188 190 190 189 186 184 185 184 182 180 179 180 183 185 186 189 193 193 191 188 193 216 249 267 283 292 290 283 280 276 278 289 294 296
280 278 276 276 276 274 273 273 271 270 271 271 269 267 267 267 265 263 263 265 265 263 259 256 255 256 254 250 249 247 245 242 238 229 220 215 214 215 216 215 211 210 206 196 187 184 184 184 183 181 182 185 186 186 188 186 183 180 180 180 181 181 181 181 182 184 187 186 183 182 182 187 217 262 282 293 298 292 282 279 280 286 293 298 299
280 278 276 276 276 274 272 271 269 268 267 266 262 259 259 260 263 266 270 271 270 269 267 258 248 242 242 244 245 245 245 243 238 228 218 212 211 214 216 216 214 212 205 193 184 181 180 179 180 179 180 182 182 183 184 183 180 179 178 178 178 177 176 177 180 183 184 180 176 177 179 178 207 287 305 298 293 288 281 281 288 294 297 302 303
281 279 277 277 276 274 272 271 270 269 268 265 260 255 254 253 252 253 256 260 262 265 268 266 255 242 239 240 238 237 238 237 232 223 212 206 207 212 213 212 212 210 200 186 179 177 175 173 174 177 178 179 180 181 181 180 179 179 178 176 173 173 174 178 181 181 178 176 173 172 170 167 217 317 317 298 292 290 285 285 293 299 301 303 304
282 280 279 280 278 275 274 273 272 271 269 267 264 261 259 258 255 250 247 248 252 256 260 264 263 257 247 238 231 229 230 229 226 221 209 201 203 209 212 211 208 200 187 177 173 173 170 168 171 175 177 178 178 178 177 177 177 178 178 176 176 175 176 177 178 176 173 172 170 166 164 166 310 324 315 299 289 286 285 287 295 302 306 306 304
284 281 280 281 279 276 275 272 268 265 262 260 258 257 255 255 255 253 249 245 246 249 249 252 258 260 255 247 240 235 231 228 225 220 210 201 202 207 210 209 200 187 177 172 170 168 165 166 171 175 175 174 173 172 173 175 176 177 177 177 176 176 175 174 174 173 172 170 166 163 166 173 337 317 303 294 287 286 287 289 295 305 310 309 305
284 280 278 278 276 274 272 270 268 268 270 270 270 269 266 263 260 258 255 250 247 246 245 245 248 249 247 246 244 239 233 227 223 219 211 203 201 202 202 197 187 179 173 169 166 166 166 168 172 173 171 169 169 170 171 174 176 177 177 176 175 175 175 174 173 172 170 169 167 163 160 53 331 303 294 293 292 292 295 295 300 308 312 310 308
285 281 277 274 270 267 266 265 266 268 268 270 272 273 273 274 273 271 270 265 257 250 246 245 244 241 239 240 241 238 234 227 219 212 205 195 188 185 182 177 173 170 169 168 169 172 173 172 171 170 170 169 170 171 173 174 175 175 175 174 175 176 176 175 175 174 172 171 170 164 157 342 327 309 301 300 297 297 297 296 298 307 312 312 312
287 282 277 273 268 265 263 262 262 262 262 264 266 266 266 269 271 271 272 274 270 261 250 243 241 239 236 235 235 236 233 221 204 192 183 174 168 164 162 160 160 162 165 169 173 175 173 168 164 164 165 166 167 169 172 173 174 174 173 173 174 176 178 178 178 176 174 174 169 161 138 343 333 316 307 305 302 298 293 290 295 308 316 316 315
287 282 278 273 269 265 263 260 258 259 261 262 263 264 264 264 266 266 267 270 273 270 259 246 239 235 231 226 225 226 218 192 172 165 160 155 152 152 153 156 159 162 163 165 166 166 164 162 160 159 159 162 164 166 168 168 169 171 172 172 173 176 178 179 180 178 176 174 169 156 350 338 330 316 308 306 302 294 287 290 301 314 319 317 314
292 286 281 276 271 266 263 259 256 255 256 255 255 257 258 257 259 262 263 264 266 267 261 248 234 226 220 212 202 188 169 154 149 148 146 145 147 150 153 156 159 160 158 156 157 159 159 159 158 157 158 160 162 163 163 164 164 165 167 168 171 175 178 181 183 181 177 173 170 111 346 332 323 315 309 305 300 291 288 297 311 318 319 316 313
302 298 290 283 277 269 262 259 255 252 253 254 255 256 257 257 257 256 256 256 257 257 250 232 210 195 182 169 157 149 143 140 139 140 143 147 151 154 156 156 155 153 151 151 152 154 155 156 157 157 157 158 159 159 160 162 162 163 164 167 171 176 182 185 187 184 178 176 184 329 336 321 314 311 307 303 298 294 297 306 315 319 319 317 313
313 310 304 298 290 276 262 256 254 252 252 255 257 259 262 263 262 258 253 251 247 232 199 168 156 150 142 137 136 136 136 137 139 140 144 148 150 152 153 152 149 146 145 145 147 148 150 152 154 155 155 156 156 157 158 160 162 163 166 169 171 176 182 186 186 183 180 184 220 325 327 315 308 306 303 299 299 303 307 310 315 319 319 316 312
325 323 320 319 316 305 280 257 249 250 253 255 257 261 262 262 261 256 243 216 160 136 129 124 123 126 126 125 127 131 134 138 140 141 142 143 144 145 145 145 143 142 142 142 143 145 147 149 151 152 153 154 155 157 159 162 165 166 168 171 173 175 178 180 179 180 185 196 249 323 318 309 304 301 299 301 310 316 313 311 314 318 317 314 311
338 338 338 338 342 345 339 313 276 268 268 263 261 266 273 290 30 73 93 98 96 99 104 106 109 114 118 120 126 132 134 136 138 140 139 139 140 140 140 140 139 140 140 140 142 144 146 147 149 152 153 154 156 159 161 163 166 168 172 176 177 179 181 181 180 183 190 202 292 317 310 303 300 303 309 316 321 319 312 309 316 319 316 311 310
350 352 355 356 360 6 10 13 13 10 10 17 29 43 57 65 69 75 84 88 90 94 99 101 105 111 113 116 125 133 135 134 135 136 136 136 138 139 138 138 138 138 139 140 142 143 145 148 150 153 154 155 156 158 161 163 167 171 176 180 182 185 189 190 189 189 192 223 305 310 307 305 310 318 325 327 323 314 308 311 318 319 316 312 311